This is the latest recevied weather packets stored in our database for station/object KR4CWL-13. If no packets are shown the sender has not sent any weather packets the latest 10 day(s).
| Time | Temp. | Humidity | Pressure | Rain* | Wind** | Luminosity | Snow |
|---|---|---|---|---|---|---|---|
| 1777682635 | 11.67° C | 90% | 1005.1 hPa | 0 mm | - | - | - |
| 1777682035 | 12.22° C | 90% | 1005.1 hPa | 0 mm | - | - | - |
| 1777681435 | 12.22° C | 87% | 1005.1 hPa | 0 mm | - | - | - |
| 1777680834 | 12.22° C | 87% | 1005.1 hPa | 0 mm | - | - | - |
| 1777680234 | 12.78° C | 87% | 1004.7 hPa | 0 mm | - | - | - |
| 1777679635 | 12.78° C | 85% | 1005.1 hPa | 0 mm | - | - | - |
| 1777679035 | 12.78° C | 85% | 1005.1 hPa | 0 mm | - | - | - |
| 1777678434 | 12.78° C | 84% | 1005.1 hPa | 0 mm | - | - | - |
| 1777677834 | 12.78° C | 84% | 1005.1 hPa | 0 mm | - | - | - |
| 1777677234 | 12.78° C | 82% | 1005.1 hPa | 0 mm | - | - | - |
| 1777676634 | 12.78° C | 81% | 1005.1 hPa | 0 mm | - | - | - |
| 1777676034 | 12.78° C | 79% | 1005.1 hPa | 0 mm | - | - | - |
| 1777675434 | 13.33° C | 78% | 1005.4 hPa | 0 mm | - | - | - |
| 1777674834 | 13.33° C | 79% | 1005.1 hPa | 0 mm | - | - | - |
| 1777674235 | 13.33° C | 78% | 1005.1 hPa | 0 mm | - | - | - |
| 1777673634 | 13.89° C | 79% | 1005.1 hPa | 0 mm | - | - | - |
| 1777673034 | 13.89° C | 81% | 1005.4 hPa | 0 mm | - | - | - |
| 1777672434 | 13.33° C | 80% | 1005.4 hPa | 0 mm | - | - | - |
| 1777671834 | 13.33° C | 82% | 1005.4 hPa | 0 mm | - | - | - |
| 1777671234 | 13.33° C | 82% | 1005.8 hPa | 0 mm | - | - | - |
| 1777670634 | 13.33° C | 82% | 1005.4 hPa | 0 mm | - | - | - |
| 1777670034 | 13.33° C | 82% | 1005.4 hPa | 0 mm | - | - | - |
| 1777669434 | 13.33° C | 81% | 1005.4 hPa | 0 mm | - | - | - |
| 1777668834 | 13.33° C | 81% | 1005.8 hPa | 0 mm | - | - | - |
| 1777668234 | 13.89° C | 78% | 1006.1 hPa | 0 mm | - | - | - |
* Rain since midnight (hover to see other rain measurements)
** Current wind speed in m/s (hover to see current wind gust speed)